Time,TemperatureF,DewpointF,PressureIn,WindDirection,WindDirectionDegrees,WindSpeedMPH,WindSpeedGustMPH,Humidity,HourlyPrecipIn,Conditions,Clouds,dailyrainin,SoftwareType,DateUTC
2013-01-25 00:12:00,53.1,52.0,30.21,ENE,65,0.0,-999.0,96,-99.99,,,0.55,weatherlink.com 1.10,2013-01-25 08:12:00,
2013-01-25 00:27:00,53.5,52.0,30.21,ENE,65,0.0,-999.0,96,-99.99,,,0.55,weatherlink.com 1.10,2013-01-25 08:27:00,
2013-01-25 00:42:00,53.4,52.0,30.21,ENE,63,0.0,-999.0,95,-99.99,,,0.00,weatherlink.com 1.10,2013-01-25 08:42:00,
2013-01-25 00:57:00,53.6,52.0,30.20,ENE,63,0.0,-999.0,95,-99.99,,,0.00,weatherlink.com 1.10,2013-01-25 08:57:00,
2013-01-25 01:12:00,54.2,53.0,30.20,NE,47,0.0,-999.0,94,-99.99,,,0.00,weatherlink.com 1.10,2013-01-25 09:12:00,
2013-01-25 01:27:00,55.0,53.0,30.21,ENE,57,0.0,-999.0,92,-99.99,,,0.00,weatherlink.com 1.10,2013-01-25 09:27:00,
2013-01-25 01:42:00,55.3,53.0,30.21,ENE,76,0.0,-999.0,90,-99.99,,,0.00,weatherlink.com 1.10,2013-01-25 09:42:00,
2013-01-25 01:57:00,55.4,52.0,30.21,ENE,76,0.0,-999.0,89,-99.99,,,0.00,weatherlink.com 1.10,2013-01-25 09:57:00,
2013-01-25 02:12:00,55.3,52.0,30.21,ENE,76,0.0,-999.0,88,-99.99,,,0.00,weatherlink.com 1.10,2013-01-25 10:12:00,
2013-01-25 02:27:00,55.2,52.0,30.21,ENE,76,0.0,-999.0,88,-99.99,,,0.00,weatherlink.com 1.10,2013-01-25 10:27:00,
2013-01-25 02:42:00,55.1,52.0,30.21,ENE,76,0.0,-999.0,88,-99.99,,,0.00,weatherlink.com 1.10,2013-01-25 10:42:00,
2013-01-25 02:57:00,54.8,51.0,30.21,ENE,76,0.0,-999.0,88,-99.99,,,0.00,weatherlink.com 1.10,2013-01-25 10:57:00,
2013-01-25 03:12:00,54.5,51.0,30.20,ENE,76,0.0,-999.0,89,-99.99,,,0.00,weatherlink.com 1.10,2013-01-25 11:12:00,
2013-01-25 03:27:00,54.3,51.0,30.20,ENE,76,0.0,-999.0,89,-99.99,,,0.00,weatherlink.com 1.10,2013-01-25 11:27:00,
2013-01-25 03:42:00,54.3,52.0,30.20,ENE,76,0.0,-999.0,90,-99.99,,,0.00,weatherlink.com 1.10,2013-01-25 11:42:00,
2013-01-25 03:57:00,54.2,51.0,30.19,ENE,76,0.0,-999.0,90,-99.99,,,0.00,weatherlink.com 1.10,2013-01-25 11:57:00,
2013-01-25 04:12:00,54.0,51.0,30.19,ENE,76,0.0,-999.0,90,-99.99,,,0.00,weatherlink.com 1.10,2013-01-25 12:12:00,
2013-01-25 04:27:00,53.9,51.0,30.19,ENE,76,0.0,-999.0,91,-99.99,,,0.00,weatherlink.com 1.10,2013-01-25 12:27:00,
2013-01-25 04:42:00,53.8,51.0,30.19,ENE,76,0.0,-999.0,91,-99.99,,,0.00,weatherlink.com 1.10,2013-01-25 12:42:00,
2013-01-25 04:57:00,53.7,51.0,30.18,ENE,75,0.0,-999.0,90,-99.99,,,0.00,weatherlink.com 1.10,2013-01-25 12:57:00,
2013-01-25 05:12:00,53.9,51.0,30.19,ENE,76,0.0,-999.0,90,-99.99,,,0.00,weatherlink.com 1.10,2013-01-25 13:12:00,
2013-01-25 05:27:00,53.9,51.0,30.18,ENE,76,0.0,-999.0,90,-99.99,,,0.00,weatherlink.com 1.10,2013-01-25 13:27:00,
2013-01-25 05:42:00,54.3,51.0,30.18,ENE,76,0.0,-999.0,89,-99.99,,,0.00,weatherlink.com 1.10,2013-01-25 13:42:00,
2013-01-25 05:57:00,54.8,51.0,30.18,ENE,57,0.0,-999.0,87,-99.99,,,0.00,weatherlink.com 1.10,2013-01-25 13:57:00,
2013-01-25 06:12:00,55.0,51.0,30.18,NE,55,0.0,-999.0,86,-99.99,,,0.00,weatherlink.com 1.10,2013-01-25 14:12:00,
2013-01-25 06:27:00,55.2,51.0,30.18,NE,55,0.0,-999.0,84,-99.99,,,0.00,weatherlink.com 1.10,2013-01-25 14:27:00,
2013-01-25 06:42:00,55.5,50.0,30.18,NE,55,0.0,-999.0,83,-99.99,,,0.00,weatherlink.com 1.10,2013-01-25 14:42:00,
2013-01-25 06:57:00,55.7,51.0,30.17,NE,47,0.0,-999.0,83,-99.99,,,0.00,weatherlink.com 1.10,2013-01-25 14:57:00,
2013-01-25 07:12:00,55.5,50.0,30.17,NE,46,0.0,-999.0,83,-99.99,,,0.00,weatherlink.com 1.10,2013-01-25 15:12:00,
2013-01-25 07:27:00,55.2,50.0,30.17,NE,48,3.0,-999.0,82,-99.99,,,0.00,weatherlink.com 1.10,2013-01-25 15:27:00,
2013-01-25 07:42:00,55.3,50.0,30.17,NE,47,0.0,-999.0,83,-99.99,,,0.00,weatherlink.com 1.10,2013-01-25 15:42:00,
2013-01-25 07:57:00,55.6,51.0,30.17,WSW,245,0.0,-999.0,83,-99.99,,,0.00,weatherlink.com 1.10,2013-01-25 15:57:00,
2013-01-25 08:12:00,56.1,51.0,30.17,WSW,246,0.0,-999.0,84,-99.99,,,0.00,weatherlink.com 1.10,2013-01-25 16:12:00,
2013-01-25 08:27:00,58.1,53.0,30.18,WSW,246,0.0,-999.0,83,-99.99,,,0.00,weatherlink.com 1.10,2013-01-25 16:27:00,
2013-01-25 08:42:00,57.2,51.0,30.18,WSW,246,0.0,-999.0,80,-99.99,,,0.00,weatherlink.com 1.10,2013-01-25 16:42:00,
2013-01-25 08:57:00,57.3,52.0,30.18,WSW,246,0.0,-999.0,81,-99.99,,,0.00,weatherlink.com 1.10,2013-01-25 16:57:00,
2013-01-25 09:12:00,58.0,52.0,30.18,WSW,245,0.0,-999.0,80,-99.99,,,0.00,weatherlink.com 1.10,2013-01-25 17:12:00,
2013-01-25 09:27:00,58.4,52.0,30.18,WSW,245,0.0,-999.0,80,-99.99,,,0.00,weatherlink.com 1.10,2013-01-25 17:27:00,
2013-01-25 09:42:00,58.2,52.0,30.19,WSW,246,0.0,-999.0,79,-99.99,,,0.00,weatherlink.com 1.10,2013-01-25 17:42:00,
2013-01-25 09:57:00,59.0,53.0,30.19,WSW,246,0.0,-999.0,80,-99.99,,,0.00,weatherlink.com 1.10,2013-01-25 17:57:00,
2013-01-25 10:12:00,59.2,53.0,30.19,WSW,246,0.0,-999.0,79,-99.99,,,0.00,weatherlink.com 1.10,2013-01-25 18:12:00,
2013-01-25 10:27:00,59.2,52.0,30.19,WSW,246,0.0,-999.0,78,-99.99,,,0.00,weatherlink.com 1.10,2013-01-25 18:27:00,
2013-01-25 10:42:00,59.7,54.0,30.19,WSW,246,0.0,-999.0,81,-99.99,,,0.00,weatherlink.com 1.10,2013-01-25 18:42:00,
2013-01-25 10:58:00,60.2,54.0,30.19,WSW,245,0.0,-999.0,80,-99.99,,,0.00,weatherlink.com 1.10,2013-01-25 18:58:00,
2013-01-25 11:12:00,60.2,54.0,30.18,WSW,246,0.0,-999.0,79,-99.99,,,0.00,weatherlink.com 1.10,2013-01-25 19:12:00,
2013-01-25 11:27:00,59.9,54.0,30.18,WSW,246,0.0,-999.0,81,-99.99,,,0.00,weatherlink.com 1.10,2013-01-25 19:27:00,
2013-01-25 11:42:00,60.6,55.0,30.16,WSW,251,0.0,-999.0,81,-99.99,,,0.00,weatherlink.com 1.10,2013-01-25 19:42:00,
2013-01-25 11:57:00,60.7,55.0,30.16,WSW,252,1.0,-999.0,81,-99.99,,,0.00,weatherlink.com 1.10,2013-01-25 19:57:00,
2013-01-25 12:12:00,60.5,55.0,30.15,WSW,249,0.0,-999.0,81,-99.99,,,0.00,weatherlink.com 1.10,2013-01-25 20:12:00,
2013-01-25 12:27:00,60.8,54.0,30.14,West,259,0.0,-999.0,79,-99.99,,,0.00,weatherlink.com 1.10,2013-01-25 20:27:00,
2013-01-25 12:42:00,60.3,54.0,30.14,West,259,0.0,-999.0,80,-99.99,,,0.00,weatherlink.com 1.10,2013-01-25 20:42:00,
2013-01-25 12:57:00,60.6,54.0,30.13,West,259,0.0,-999.0,80,-99.99,,,0.00,weatherlink.com 1.10,2013-01-25 20:57:00,
2013-01-25 13:12:00,60.4,54.0,30.12,West,262,0.0,-999.0,79,-99.99,,,0.00,weatherlink.com 1.10,2013-01-25 21:12:00,
2013-01-25 13:27:00,61.0,54.0,30.12,WSW,257,3.0,-999.0,78,-99.99,,,0.00,weatherlink.com 1.10,2013-01-25 21:27:00,
2013-01-25 13:42:00,60.6,54.0,30.11,WSW,256,0.0,-999.0,78,-99.99,,,0.00,weatherlink.com 1.10,2013-01-25 21:42:00,
2013-01-25 13:57:00,61.5,55.0,30.11,WSW,257,0.0,-999.0,80,-99.99,,,0.00,weatherlink.com 1.10,2013-01-25 21:57:00,
2013-01-25 14:12:00,61.3,54.0,30.11,WSW,256,0.0,-999.0,77,-99.99,,,0.00,weatherlink.com 1.10,2013-01-25 22:12:00,
2013-01-25 14:27:00,60.7,54.0,30.10,WSW,256,0.0,-999.0,78,-99.99,,,0.00,weatherlink.com 1.10,2013-01-25 22:27:00,
2013-01-25 14:42:00,60.7,54.0,30.10,WSW,256,1.0,-999.0,78,-99.99,,,0.00,weatherlink.com 1.10,2013-01-25 22:42:00,
2013-01-25 14:57:00,61.2,53.0,30.09,WSW,256,0.0,-999.0,75,-99.99,,,0.00,weatherlink.com 1.10,2013-01-25 22:57:00,
2013-01-25 15:12:00,61.9,54.0,30.09,WSW,257,1.0,-999.0,75,-99.99,,,0.00,weatherlink.com 1.10,2013-01-25 23:12:00,
2013-01-25 15:27:00,61.4,53.0,30.09,WSW,250,0.0,-999.0,73,-99.99,,,0.00,weatherlink.com 1.10,2013-01-25 23:27:00,
2013-01-25 15:42:00,61.4,53.0,30.08,WSW,249,0.0,-999.0,75,-99.99,,,0.00,weatherlink.com 1.10,2013-01-25 23:42:00,
2013-01-25 15:57:00,61.8,54.0,30.07,WSW,250,0.0,-999.0,76,-99.99,,,0.00,weatherlink.com 1.10,2013-01-25 23:57:00,
2013-01-25 16:12:00,60.8,52.0,30.07,WSW,249,0.0,-999.0,74,-99.99,,,0.00,weatherlink.com 1.10,2013-01-26 00:12:00,
2013-01-25 16:27:00,60.6,52.0,30.07,WSW,249,0.0,-999.0,74,-99.99,,,0.00,weatherlink.com 1.10,2013-01-26 00:27:00,
2013-01-25 16:42:00,60.9,54.0,30.07,WSW,248,0.0,-999.0,77,-99.99,,,0.00,weatherlink.com 1.10,2013-01-26 00:42:00,
2013-01-25 16:57:00,60.9,53.0,30.06,WSW,248,0.0,-999.0,75,-99.99,,,0.00,weatherlink.com 1.10,2013-01-26 00:57:00,
2013-01-25 17:12:00,60.7,52.0,30.06,WSW,248,0.0,-999.0,74,-99.99,,,0.00,weatherlink.com 1.10,2013-01-26 01:12:00,
2013-01-25 17:27:00,60.2,52.0,30.06,WSW,248,0.0,-999.0,74,-99.99,,,0.00,weatherlink.com 1.10,2013-01-26 01:27:00,
2013-01-25 17:42:00,59.3,52.0,30.07,WSW,248,0.0,-999.0,77,-99.99,,,0.00,weatherlink.com 1.10,2013-01-26 01:42:00,
2013-01-25 17:57:00,59.0,52.0,30.07,WSW,248,0.0,-999.0,78,-99.99,,,0.00,weatherlink.com 1.10,2013-01-26 01:57:00,
2013-01-25 18:12:00,58.4,52.0,30.08,WSW,248,0.0,-999.0,79,-99.99,,,0.00,weatherlink.com 1.10,2013-01-26 02:12:00,
2013-01-25 18:27:00,58.1,52.0,30.08,WSW,256,0.0,-999.0,80,-99.99,,,0.00,weatherlink.com 1.10,2013-01-26 02:27:00,
2013-01-25 18:42:00,58.2,52.0,30.07,WSW,257,0.0,-999.0,80,-99.99,,,0.00,weatherlink.com 1.10,2013-01-26 02:42:00,
2013-01-25 18:57:00,58.0,52.0,30.07,ENE,71,0.0,-999.0,80,-99.99,,,0.00,weatherlink.com 1.10,2013-01-26 02:57:00,
2013-01-25 19:12:00,57.9,52.0,30.07,ENE,75,0.0,-999.0,80,-99.99,,,0.00,weatherlink.com 1.10,2013-01-26 03:12:00,
2013-01-25 19:27:00,58.1,52.0,30.07,NE,53,0.0,-999.0,79,-99.99,,,0.00,weatherlink.com 1.10,2013-01-26 03:27:00,
2013-01-25 19:42:00,58.2,51.0,30.07,ENE,59,0.0,-999.0,78,-99.99,,,0.00,weatherlink.com 1.10,2013-01-26 03:42:00,
2013-01-25 19:57:00,58.3,51.0,30.07,ENE,59,0.0,-999.0,77,-99.99,,,0.00,weatherlink.com 1.10,2013-01-26 03:57:00,
2013-01-25 20:12:00,58.3,51.0,30.07,ENE,59,0.0,-999.0,76,-99.99,,,0.00,weatherlink.com 1.10,2013-01-26 04:12:00,
2013-01-25 20:27:00,58.4,51.0,30.07,ENE,59,0.0,-999.0,75,-99.99,,,0.00,weatherlink.com 1.10,2013-01-26 04:27:00,
2013-01-25 20:42:00,58.2,51.0,30.07,ENE,59,0.0,-999.0,76,-99.99,,,0.00,weatherlink.com 1.10,2013-01-26 04:42:00,
2013-01-25 20:57:00,57.9,50.0,30.08,ENE,59,0.0,-999.0,76,-99.99,,,0.00,weatherlink.com 1.10,2013-01-26 04:57:00,
2013-01-25 21:12:00,57.6,50.0,30.08,ENE,59,0.0,-999.0,77,-99.99,,,0.00,weatherlink.com 1.10,2013-01-26 05:12:00,
2013-01-25 21:27:00,57.5,51.0,30.08,ENE,59,0.0,-999.0,78,-99.99,,,0.00,weatherlink.com 1.10,2013-01-26 05:27:00,
2013-01-25 21:42:00,57.5,51.0,30.08,ENE,59,0.0,-999.0,78,-99.99,,,0.00,weatherlink.com 1.10,2013-01-26 05:42:00,
2013-01-25 21:57:00,57.5,50.0,30.07,ENE,59,0.0,-999.0,77,-99.99,,,0.00,weatherlink.com 1.10,2013-01-26 05:57:00,
2013-01-25 22:12:00,57.3,50.0,30.08,ENE,59,0.0,-999.0,77,-99.99,,,0.00,weatherlink.com 1.10,2013-01-26 06:12:00,
2013-01-25 22:27:00,57.3,50.0,30.08,ENE,59,0.0,-999.0,77,-99.99,,,0.00,weatherlink.com 1.10,2013-01-26 06:27:00,
2013-01-25 22:42:00,56.9,50.0,30.08,ENE,59,0.0,-999.0,78,-99.99,,,0.00,weatherlink.com 1.10,2013-01-26 06:42:00,
2013-01-25 22:57:00,56.7,50.0,30.07,ENE,59,0.0,-999.0,78,-99.99,,,0.00,weatherlink.com 1.10,2013-01-26 06:57:00,
2013-01-25 23:12:00,56.6,50.0,30.07,ENE,59,0.0,-999.0,78,-99.99,,,0.00,weatherlink.com 1.10,2013-01-26 07:12:00,
2013-01-25 23:27:00,56.4,49.0,30.06,ENE,59,0.0,-999.0,77,-99.99,,,0.00,weatherlink.com 1.10,2013-01-26 07:27:00,
2013-01-25 23:42:00,56.7,50.0,30.06,ENE,59,0.0,-999.0,77,-99.99,,,0.00,weatherlink.com 1.10,2013-01-26 07:42:00,
2013-01-25 23:57:00,56.3,49.0,30.06,ENE,59,0.0,-999.0,77,-99.99,,,0.00,weatherlink.com 1.10,2013-01-26 07:57:00,